Regional Weather Roundup
Issued by NWS

Home | Current Version | Previous Version | Text Only | Print | Product List | Glossary On
Versions: 1 2 3 4 5 6 7 8 9 10 11 12 13 14 15 16 17 18 19 20 21 22 23 24 25 26 27 28 29 30 31 32 33 34 35 36 37 38 39 40 41 42 43 44 45 46 47 48 49 50
000
ASUS42 KFFC 301103
RWRGA
WEATHER ROUNDUP FOR GEORGIA
NATIONAL WEATHER SERVICE PEACHTREE CITY GA
700 AM EDT THU MAR 30 2017

NOTE: "FAIR" INDICATES FEW OR NO CLOUDS BELOW 12,000 FEET WITH NO
SIGNIFICANT WEATHER AND/OR OBSTRUCTIONS TO VISIBILITY.

* = USE WITH CAUTION. THE STATIONS MARKED WITH AN ASTERISK MAY NOT
REPORT WEATHER SUCH AS PRECIPITATION, FOG, OR THUNDER AND ARE NOT
QUALITY CONTROLLED BY NWS.

THE REMARK "TC" DENOTES TEMPERATURE READING IN DEGREES CELSIUS.

GAZ001>058-301200-
NORTH GEORGIA

CITY           SKY/WX    TMP DP  RH WIND       PRES   REMARKS
ATLANTA        MOCLDY    63  56  78 CALM      29.97R
ATHENS         CLEAR     60  56  86 E6        29.99R
CHAMBLEE       PTCLDY    61  57  87 CALM      29.96F
PEACHTREE CITY MOCLDY    56  56 100 CALM      29.98R FOG
ROME           CLOUDY    60  56  86 CALM      29.94R
WEST ATLANTA   CLOUDY    59  56  89 CALM      29.96S
GAINESVILLE    PTCLDY    61  53  75 E10       30.00S
CARTERSVILLE   CLOUDY    61  57  87 CALM      29.96R


CITY           SKY/WX    TMP DP  RH WIND       PRES   REMARKS
DALTON*        CLOUDY    63  59  88 SE3       29.94R
LAWRENCEVILLE* CLEAR     55  54  94 CALM      29.99
MARIETTA       MOCLDY    63  57  81 CALM      29.96S
KENNESAW*      MOCLDY    64  55  72 CALM      29.94
CANTON*        CLOUDY    61  50  67 CALM      29.99R
$$

GAZ059>098-102>109-301200-
CENTRAL GEORGIA

CITY           SKY/WX    TMP DP  RH WIND       PRES   REMARKS
AUGUSTA-BUSH   CLOUDY    62  60  93 CALM      30.01S FOG
AUGUSTA-DANIEL CLOUDY    66  61  84 E6        30.02S
COLUMBUS       PTCLDY    60  55  83 CALM      29.96R
MACON          CLEAR     58  56  93 CALM      29.97R FOG
ROBINS AFB     CLEAR     59  58  97 SE3       29.97R


CITY           SKY/WX    TMP DP  RH WIND       PRES   REMARKS
LAGRANGE*      PTCLDY    56  56 100 CALM      29.97R
SYLVANIA*      CLOUDY   N/A N/A N/A CALM      30.03R
MILLEDGEVILLE* CLOUDY    64  63  94 E3        29.99R
$$

GAZ099>101-110>166-301200-
SOUTH GEORGIA

CITY           SKY/WX    TMP DP  RH WIND       PRES   REMARKS
SAVANNAH       CLOUDY    68  65  90 E7        30.02R FOG
VALDOSTA       CLEAR     54  53  97 CALM      29.97S
ALMA           PTCLDY    65  63  93 SE3       29.98R
ST SIMONS      MOCLDY    68  65  90 E6        29.99R
FT STEWART     MOCLDY    63  61  94 E3        29.98R
ALBANY         CLEAR     57  55  93 CALM      29.98R FOG
HUNTER AFB     CLOUDY    66  66 100 E6        29.99S VSB 1
MOODY AFB      CLEAR     58  54  86 CALM      29.96S
BRUNSWICK      PTCLDY    64  64 100 E5        30.00S


CITY           SKY/WX    TMP DP  RH WIND       PRES   REMARKS
BAINBRIDGE*    CLEAR     59  55  88 CALM      29.96R
MOULTRIE*      CLEAR     59  55  88 CALM      29.98R
VIDALIA*       CLOUDY    64  61  88 E3        30.00R
WAYCROSS*      PTCLDY    65  65 100 CALM      29.98R FOG
DOUGLAS*       CLOUDY    64  63  94 CALM      30.00R
$$



USA.gov is the U.S. government's official web portal to all federal, state and local government web resources and services.